Theta_e
357 356 357 362 366 365 365 366 366 362 364 365 365 364 365 359 360 366 360 363 364 357
346 344 343 349 352 346 349 345 350 358 363 364 364 364 366 361 360 363 361 360 363 361
340 341 345 345 342 343 342 344 345 344 348 354 361 362 363 363 364 362 359 358 365 363
340 341 341 340 340 341 342 344 343 344 344 344 348 357 358 362 362 363 364 362 362 364
332 335 335 336 337 339 339 341 342 342 341 342 342 345 352 355 357 358 361 361 362 363
325 328 330 332 334 336 337 338 338 340 340 340 340 339 340 342 345 354 359 359 362 360
321 322 323 325 328 330 334 335 336 337 338 339 341 339 337 337 339 342 349 357 357 359
322 322 322 323 324 326 327 329 332 335 336 338 337 336 338 334 334 337 336 344 354 359
321 321 321 322 322 323 323 324 325 327 331 333 333 329 328 330 331 332 332 333 338 343
320 319 320 320 320 320 321 322 322 323 324 326 329 326 326 328 332 332 331 335 335 336
318 318 319 321 320 322 321 322 321 321 324 324 325 322 321 324 330 332 334 334 336 338
319 318 317 317 318 319 319 320 321 321 324 324 325 319 318 322 326 328 332 333 337 338
320 319 317 317 317 315 316 316 317 319 322 321 323 317 314 318 321 324 326 331 332 327
319 317 318 319 320 315 313 313 312 312 315 320 322 323 313 312 319 322 324 324 325 328
Wind_Speed
3 5 6 7 7 6 7 8 11 12 12 12 13 12 12 11 12 12 11 13 12 11
4 5 7 7 6 7 7 8 9 12 11 12 12 13 13 11 13 12 13 14 13 12
4 3 3 4 7 8 8 8 9 10 11 10 10 9 10 13 14 14 12 12 13 13
8 8 9 8 9 10 11 11 11 11 12 11 11 9 9 12 15 15 15 15 15 15
10 10 10 11 11 12 13 13 14 13 13 13 12 11 9 11 12 14 16 15 16 18
11 13 12 14 14 14 15 16 16 16 15 14 14 13 12 13 14 16 16 16 17 16
12 13 14 15 16 16 16 16 17 17 17 17 16 15 15 14 14 15 16 17 15 18
13 13 13 14 15 16 17 17 18 19 19 19 18 14 16 16 14 14 16 17 18 18
14 15 15 15 16 17 17 17 18 20 20 20 16 16 10 11 17 18 17 16 17 19
17 18 18 18 18 18 19 19 20 20 21 22 22 22 16 14 17 18 19 17 17 17
18 19 20 21 21 21 20 20 19 20 20 21 19 22 20 18 21 20 20 19 19 19
15 16 18 20 21 21 21 22 21 21 21 21 21 21 20 18 21 21 21 19 20 19
13 14 17 18 19 19 21 21 19 23 22 25 24 23 21 20 18 22 18 19 20 24
14 15 16 20 18 18 19 20 19 21 21 23 24 23 24 25 20 19 18 17 16 16
Wind_Direction
334 301 292 318 309 313 297 297 312 299 285 279 273 265 263 257 249 244 247 248 251 266
27 15 342 343 324 327 316 331 318 315 305 298 284 277 263 254 257 255 253 251 241 245
13 356 314 326 329 317 312 310 314 316 313 305 291 280 282 272 254 250 253 254 250 247
339 336 326 320 315 309 309 307 305 306 305 304 300 290 285 274 273 274 275 260 257 253
334 327 317 307 305 305 299 296 291 291 291 292 293 294 275 270 274 280 272 262 264 262
327 316 319 313 309 307 301 297 290 286 283 283 282 285 280 281 279 274 264 269 265 258
329 322 316 314 305 303 297 293 290 288 283 279 276 274 274 275 271 276 275 270 258 258
330 327 316 308 305 301 300 294 292 286 277 275 273 268 266 271 271 277 278 277 270 260
330 327 323 318 313 307 299 295 291 287 283 281 275 272 274 274 273 276 275 272 271 276
337 331 327 321 315 310 305 299 293 288 283 278 275 273 262 256 267 270 272 271 270 268
337 330 329 323 315 310 305 299 293 287 283 279 276 273 273 259 264 267 264 263 264 262
338 327 318 312 310 308 303 298 295 290 286 278 273 271 266 261 267 262 260 257 252 253
319 317 314 305 298 292 287 285 283 283 279 275 274 266 265 259 263 263 259 256 254 242
302 302 300 311 305 299 288 282 276 273 271 268 267 267 254 255 257 256 258 254 254 252